Wind_Speed
26 27 27 28 29 38 38 32 41 35 34 38 45 50 49 47 45 43 42 42 43 42 43 43 42 42 41 39 39 39 40 40 35 30 25 30 35 38 29 34 32 33 26 33 36
30 28 29 29 30 31 34 42 33 42 34 35 38 43 47 49 47 45 46 44 44 43 44 45 45 44 44 42 43 41 39 37 33 30 33 35 37 36 29 35 33 35 31 35 31
38 35 32 32 32 31 33 32 39 35 41 38 36 37 40 44 47 45 45 46 46 45 45 45 46 45 44 45 45 43 41 38 32 34 34 33 34 33 36 37 32 35 34 36 35
42 43 41 37 36 34 34 35 36 35 37 40 39 37 38 40 42 42 44 45 46 47 46 46 45 46 46 45 45 44 44 41 35 35 35 31 33 36 35 34 36 37 36 36 35
41 43 45 44 42 40 38 36 38 35 38 35 39 38 38 38 39 41 42 43 44 46 47 47 46 46 46 46 44 43 45 42 38 36 35 33 37 36 37 39 36 38 36 34 33
48 46 48 50 48 46 44 40 37 37 36 39 35 39 37 38 38 36 38 42 43 45 47 48 47 46 47 46 44 42 43 43 40 37 35 37 37 38 39 37 38 38 37 31 32
56 58 57 56 56 53 49 45 41 38 38 38 42 38 39 36 37 35 37 38 39 42 45 47 46 46 46 45 44 41 41 44 42 38 38 39 36 35 38 39 37 36 36 33 32
71 70 69 63 63 60 56 50 46 41 39 39 39 39 34 36 35 34 35 36 37 37 43 46 46 46 46 45 44 43 45 43 42 41 40 38 34 33 37 37 36 36 35 34 34
68 63 60 54 58 65 63 56 49 44 38 42 37 36 38 33 33 34 33 34 34 38 39 39 41 43 43 41 42 43 43 42 43 41 41 39 36 35 35 36 34 35 36 34 33
47 43 41 41 40 55 65 60 52 43 41 39 37 36 37 34 33 32 33 33 32 33 35 38 38 40 41 41 40 42 43 43 40 43 40 41 38 37 37 37 36 35 36 37 36
39 33 30 29 27 40 57 62 54 45 43 38 35 36 34 33 33 31 31 31 31 31 33 34 35 34 36 39 39 41 41 38 38 38 40 40 41 40 39 37 36 38 39 40 40
18 16 16 13 15 32 45 56 52 44 45 45 37 37 35 35 33 31 31 30 29 29 29 29 29 32 32 35 36 36 36 33 33 36 41 39 40 40 41 39 40 39 40 42 42
18 21 26 13 11 26 42 48 44 43 44 41 38 37 35 35 32 29 30 28 26 28 25 26 29 29 29 29 30 31 31 30 32 31 33 37 39 38 39 39 40 41 42 44 46
14 19 32 27 8 22 43 54 54 50 45 39 36 38 34 34 31 29 27 26 26 24 23 25 24 25 23 23 25 24 25 23 25 28 32 35 42 38 40 44 47 48 49 50 52
16 15 21 16 12 25 44 60 45 46 48 43 36 38 39 34 31 27 26 22 22 22 22 21 20 20 19 20 20 21 21 24 28 31 35 36 45 42 46 49 53 57 61 61 60
19 21 24 15 14 36 57 45 53 49 44 44 40 34 37 34 29 26 23 21 21 22 21 20 18 17 18 18 19 21 24 28 32 36 39 44 49 39 51 53 51 59 59 64 69
27 27 28 15 8 46 66 40 40 54 43 41 37 32 34 31 30 28 24 21 22 20 19 18 18 19 19 20 22 25 28 33 37 40 41 49 50 43 44 48 52 57 57 56 63
37 34 14 7 21 54 58 33 39 51 48 38 32 30 35 32 32 29 26 25 23 21 19 19 19 19 20 22 25 27 31 34 41 43 42 47 44 46 52 48 53 63 62 59 58
33 27 13 9 31 49 41 31 32 43 46 26 29 33 36 32 31 29 26 23 22 20 20 20 20 20 22 24 28 29 34 37 41 42 44 46 49 49 44 49 53 54 57 59 57
34 23 4 26 43 55 35 31 25 43 31 32 17 30 31 30 29 28 26 23 21 21 21 19 21 22 22 27 31 34 33 35 38 43 45 45 47 48 50 47 50 47 45 44 40
28 11 20 33 39 53 35 30 21 36 37 27 18 24 28 30 27 26 26 24 22 21 20 20 21 21 24 29 29 30 32 33 39 40 45 42 49 44 46 49 43 37 35 39 43
20 5 18 34 42 43 18 26 20 34 38 25 22 21 28 29 27 26 26 23 22 21 19 19 18 21 24 26 29 29 28 31 37 37 44 44 44 43 46 44 38 34 37 32 34
16 10 21 33 50 37 23 18 17 28 33 28 21 16 22 27 29 28 25 24 22 20 17 18 18 20 22 25 25 22 25 31 34 34 34 40 42 37 48 46 38 35 35 36 37
19 18 32 42 35 23 20 22 18 21 30 29 19 15 26 23 25 26 25 22 19 16 18 19 16 19 21 23 16 16 20 23 25 31 39 35 42 39 38 44 39 30 30 31 32
22 27 42 39 22 24 16 18 20 16 18 23 20 20 24 22 21 20 19 17 16 17 18 15 15 16 20 13 15 17 19 20 22 28 35 36 36 42 44 34 33 33 20 23 21
23 34 30 24 22 21 15 22 21 14 14 14 15 15 17 21 19 13 13 14 15 15 15 15 14 14 15 11 12 15 14 14 20 27 34 35 30 43 35 28 22 20 18 16 9
23 24 16 16 13 14 12 14 20 13 11 10 10 8 7 14 18 17 17 16 15 15 14 13 12 15 12 12 10 8 9 17 22 27 37 32 28 31 28 23 20 12 5 7 3
Wind_Direction
285 283 278 272 270 251 243 244 237 237 240 239 237 235 233 232 231 231 231 229 230 228 231 234 235 237 238 239 240 242 248 252 257 261 255 241 244 250 243 246 247 251 243 243 255
285 279 277 273 268 264 257 246 243 236 238 238 236 234 233 232 230 229 230 230 231 230 229 232 235 237 241 242 243 244 246 252 253 252 248 236 238 244 247 247 243 248 242 251 252
287 281 276 273 270 264 257 259 242 239 236 237 234 234 231 231 231 229 229 229 230 232 231 231 233 236 239 243 247 247 246 248 246 249 251 239 243 248 246 245 249 250 247 249 249
286 282 278 271 267 261 258 252 253 238 235 233 233 235 234 230 230 228 228 229 230 231 232 232 232 233 235 240 245 248 245 245 241 247 248 245 246 246 247 249 247 247 251 248 256
290 282 274 269 265 261 253 249 247 246 233 235 231 232 234 232 231 229 229 230 232 231 232 233 232 233 235 238 241 245 244 242 242 242 245 245 247 248 245 246 249 249 249 250 256
294 285 277 268 261 256 254 248 242 241 239 235 236 234 233 232 231 232 231 230 230 232 232 232 232 233 234 237 239 242 242 244 244 244 244 244 246 247 246 250 247 247 251 248 251
290 284 276 265 260 252 247 246 242 239 237 237 231 231 232 233 231 232 231 231 230 231 233 232 232 232 233 234 239 240 238 241 244 243 242 244 242 245 247 245 248 249 250 251 247
296 285 273 258 252 248 243 238 238 236 236 235 231 232 227 228 228 230 232 231 227 228 232 229 231 232 233 234 236 239 239 241 244 243 239 242 239 239 244 245 244 246 248 249 250
290 288 281 273 254 239 238 231 230 233 231 232 229 228 227 229 226 228 229 232 226 225 229 230 229 232 234 236 237 238 239 243 244 241 239 238 236 236 241 242 241 244 248 250 252
301 291 280 271 256 237 229 228 225 226 225 229 226 226 225 225 223 223 224 228 228 226 226 231 228 231 233 234 237 238 237 240 241 243 239 236 235 238 239 242 243 245 248 251 252
306 301 289 275 250 230 221 222 221 221 220 219 223 223 222 221 222 220 221 222 224 224 224 227 229 231 232 234 237 238 240 240 244 247 246 240 237 237 240 243 243 245 245 248 252
333 332 316 293 247 219 207 211 217 211 213 213 211 217 214 215 216 217 218 220 221 222 222 227 230 229 232 235 239 240 243 240 240 244 246 244 243 243 243 244 248 248 248 251 251
21 21 11 328 266 206 193 186 195 192 209 208 209 215 212 210 211 215 217 216 216 217 215 220 224 227 231 237 238 240 239 238 239 244 247 248 244 248 250 254 256 257 255 251 250
9 6 1 358 280 201 183 170 170 192 200 196 207 212 212 210 207 211 214 214 214 214 213 216 215 223 222 226 227 229 235 241 249 251 254 256 256 254 262 262 260 258 257 260 256
2 351 350 353 332 184 173 169 166 187 194 194 211 204 204 208 203 208 211 210 207 203 205 205 196 202 203 215 226 236 246 260 264 267 267 269 271 260 263 266 269 271 268 263 257
343 340 340 338 327 171 169 141 161 169 183 194 198 192 205 201 200 203 203 199 195 192 190 185 184 200 216 228 242 252 259 266 270 271 272 273 275 273 280 282 284 278 278 275 270
341 329 325 299 232 167 172 144 156 168 178 192 195 202 197 196 197 200 198 193 191 190 189 193 196 212 224 238 252 259 265 271 273 274 277 282 285 283 290 290 287 283 283 281 275
330 333 336 265 175 170 160 152 158 179 185 192 191 196 192 193 194 200 197 192 189 192 195 208 213 222 242 251 259 267 271 277 277 283 285 286 288 295 295 296 299 295 287 280 274
346 350 334 157 163 182 138 133 146 169 186 178 191 193 188 191 195 198 197 197 197 204 210 218 229 243 254 263 266 268 274 280 286 287 287 292 294 294 301 301 298 300 293 278 268
345 354 103 141 163 163 122 122 131 165 159 185 175 192 188 193 194 199 200 202 206 212 223 232 245 252 260 267 270 273 283 290 290 292 294 295 299 307 310 305 306 310 291 280 272
8 29 129 137 162 144 103 122 140 167 177 175 187 178 187 191 193 202 205 209 214 222 232 241 252 263 269 267 276 286 292 294 294 295 293 300 301 319 309 298 302 307 282 269 269
11 60 144 153 157 138 114 124 139 177 178 164 157 164 176 184 187 195 202 208 213 222 234 249 259 264 268 282 287 291 293 294 292 296 295 304 304 314 301 296 297 291 285 269 261
36 127 146 147 152 145 115 101 150 171 175 180 180 173 177 185 190 194 199 207 215 227 240 248 257 269 281 279 285 297 291 291 296 302 320 309 320 306 305 299 293 282 279 283 270
60 135 149 152 144 126 138 118 135 165 189 196 196 212 185 186 190 198 205 214 222 230 239 250 261 272 278 282 286 274 284 298 310 325 322 335 320 322 298 292 296 284 284 289 288
77 118 144 138 124 122 120 128 148 161 175 198 206 207 196 198 196 198 203 209 219 230 243 257 268 271 276 280 284 294 320 330 328 334 330 337 327 328 328 320 309 300 293 293 288
87 125 123 117 105 126 134 171 179 170 177 181 192 204 216 212 206 204 206 211 224 247 259 264 257 266 266 260 284 318 336 344 352 349 346 341 334 334 344 334 330 321 302 302 283
96 136 127 136 136 130 144 176 185 190 189 196 196 207 228 213 222 227 227 240 247 252 254 245 260 266 269 265 291 344 354 3 357 351 350 351 356 357 350 359 357 340 320 303 356
Height
5672 5670 5668 5667 5666 5666 5666 5668 5671 5673 5676 5679 5683 5688 5694 5699 5704 5712 5719 5724 5728 5736 5739 5744 5749 5754 5757 5761 5764 5766 5768 5772 5779 5782 5788 5787 5784 5783 5788 5789 5794 5795 5800 5799 5799
5666 5663 5661 5660 5659 5658 5658 5660 5663 5664 5668 5672 5675 5679 5684 5689 5695 5703 5709 5716 5721 5726 5730 5735 5741 5745 5750 5755 5756 5760 5762 5767 5773 5776 5778 5778 5777 5779 5783 5783 5788 5789 5794 5793 5797
5657 5655 5653 5651 5649 5649 5649 5651 5654 5656 5660 5664 5667 5671 5675 5680 5686 5693 5700 5706 5711 5717 5722 5726 5732 5737 5742 5747 5749 5755 5757 5760 5766 5767 5771 5773 5773 5776 5775 5777 5782 5784 5786 5787 5790
5648 5645 5643 5643 5642 5641 5640 5642 5645 5647 5652 5656 5658 5663 5667 5671 5678 5684 5690 5697 5702 5707 5713 5718 5723 5729 5733 5738 5742 5747 5749 5752 5758 5759 5763 5769 5769 5767 5769 5773 5774 5777 5780 5782 5783
5636 5632 5631 5630 5631 5632 5632 5633 5636 5639 5643 5647 5650 5655 5659 5663 5670 5675 5682 5688 5693 5698 5705 5710 5715 5720 5725 5729 5733 5737 5742 5746 5750 5752 5756 5761 5761 5763 5762 5762 5771 5771 5773 5776 5777
5621 5618 5616 5614 5616 5618 5621 5623 5625 5629 5632 5637 5642 5646 5651 5656 5663 5668 5673 5679 5684 5689 5695 5701 5706 5711 5716 5721 5725 5729 5734 5739 5743 5746 5749 5752 5755 5755 5756 5762 5762 5764 5766 5771 5772
5603 5598 5596 5596 5596 5600 5606 5611 5615 5618 5623 5627 5632 5637 5644 5649 5655 5661 5665 5671 5676 5681 5687 5692 5698 5703 5709 5713 5717 5723 5727 5730 5735 5738 5741 5743 5748 5749 5750 5753 5756 5758 5760 5763 5766
5573 5566 5562 5565 5571 5579 5587 5595 5602 5607 5612 5618 5623 5628 5636 5643 5648 5652 5658 5664 5669 5674 5678 5683 5690 5695 5701 5707 5712 5715 5719 5723 5727 5730 5733 5736 5742 5743 5742 5746 5750 5751 5751 5754 5758
5536 5531 5529 5533 5540 5552 5564 5577 5589 5596 5603 5608 5615 5623 5629 5635 5642 5646 5651 5656 5662 5665 5670 5677 5683 5690 5695 5700 5704 5708 5712 5715 5718 5723 5726 5730 5733 5735 5737 5739 5742 5744 5745 5748 5751
5514 5510 5508 5509 5513 5523 5541 5559 5573 5584 5591 5598 5607 5616 5625 5631 5636 5641 5645 5651 5655 5659 5665 5671 5677 5682 5687 5692 5698 5701 5703 5706 5711 5714 5719 5722 5726 5728 5729 5732 5735 5737 5740 5741 5742
5499 5496 5493 5493 5497 5503 5520 5540 5560 5572 5581 5592 5603 5608 5618 5625 5630 5635 5640 5645 5649 5654 5659 5665 5671 5677 5681 5686 5689 5694 5698 5700 5703 5707 5711 5716 5718 5721 5723 5725 5728 5729 5730 5732 5734
5491 5487 5485 5484 5485 5490 5503 5525 5546 5564 5573 5584 5595 5601 5611 5618 5625 5630 5635 5641 5645 5650 5653 5661 5667 5672 5676 5681 5686 5689 5693 5695 5697 5699 5703 5708 5712 5713 5715 5719 5719 5721 5723 5724 5726
5490 5486 5484 5481 5480 5484 5495 5514 5537 5556 5567 5578 5588 5596 5606 5613 5619 5625 5631 5635 5639 5644 5650 5656 5662 5666 5672 5677 5682 5684 5687 5689 5692 5694 5698 5699 5704 5707 5710 5712 5713 5713 5714 5715 5716
5490 5487 5484 5481 5480 5481 5495 5511 5533 5548 5562 5575 5583 5592 5601 5608 5616 5621 5626 5631 5635 5641 5646 5652 5659 5664 5668 5674 5677 5680 5683 5686 5688 5690 5692 5694 5694 5702 5704 5704 5703 5703 5702 5702 5703
5492 5488 5485 5482 5478 5482 5495 5511 5527 5543 5557 5571 5578 5585 5596 5606 5613 5618 5624 5628 5633 5638 5645 5652 5656 5661 5666 5671 5675 5677 5680 5682 5683 5683 5685 5688 5683 5696 5694 5693 5690 5686 5684 5686 5688
5492 5488 5485 5483 5481 5486 5496 5509 5523 5541 5554 5564 5574 5584 5592 5601 5610 5616 5622 5626 5632 5637 5643 5650 5656 5661 5664 5668 5671 5673 5675 5676 5675 5676 5677 5675 5675 5690 5682 5676 5671 5666 5665 5665 5664
5492 5487 5482 5478 5480 5488 5495 5505 5524 5537 5551 5563 5573 5582 5590 5599 5608 5614 5621 5626 5632 5637 5641 5648 5654 5657 5661 5664 5666 5667 5668 5668 5668 5668 5670 5662 5663 5674 5664 5659 5651 5646 5647 5644 5644
5490 5481 5475 5475 5481 5490 5502 5518 5527 5540 5552 5562 5573 5581 5589 5597 5605 5612 5619 5624 5629 5634 5641 5646 5651 5654 5657 5659 5661 5662 5662 5662 5658 5658 5657 5652 5652 5655 5648 5644 5640 5628 5628 5624 5623
5489 5479 5474 5475 5485 5496 5515 5525 5531 5546 5558 5568 5574 5579 5587 5595 5605 5611 5618 5623 5629 5634 5639 5642 5647 5650 5652 5654 5656 5656 5655 5655 5652 5650 5646 5644 5642 5643 5634 5631 5626 5620 5609 5604 5604
5492 5484 5477 5480 5490 5509 5521 5528 5538 5548 5559 5568 5576 5582 5589 5596 5604 5610 5617 5623 5627 5632 5635 5641 5643 5646 5649 5649 5649 5648 5650 5648 5645 5640 5637 5633 5626 5620 5616 5607 5604 5601 5594 5591 5588
5497 5493 5489 5492 5502 5517 5524 5535 5543 5552 5560 5571 5576 5581 5589 5597 5604 5610 5616 5621 5625 5630 5634 5637 5640 5644 5644 5642 5643 5644 5643 5641 5636 5634 5627 5622 5614 5612 5604 5596 5592 5588 5584 5578 5576
5502 5502 5502 5506 5517 5524 5538 5543 5549 5557 5566 5574 5579 5583 5588 5595 5601 5607 5613 5619 5623 5627 5631 5634 5637 5638 5637 5637 5636 5638 5637 5634 5629 5627 5618 5615 5606 5602 5591 5584 5579 5575 5571 5568 5562
5505 5508 5510 5518 5529 5537 5541 5548 5555 5562 5570 5575 5580 5586 5591 5595 5601 5607 5613 5617 5621 5626 5630 5631 5633 5633 5633 5633 5634 5634 5630 5627 5623 5619 5615 5606 5601 5592 5582 5572 5567 5562 5558 5555 5553
5514 5519 5523 5532 5541 5545 5551 5556 5562 5566 5571 5577 5583 5587 5591 5596 5601 5606 5611 5616 5620 5624 5626 5627 5630 5630 5630 5629 5631 5630 5627 5624 5618 5612 5605 5603 5589 5586 5573 5561 5555 5553 5549 5548 5545
5530 5532 5537 5546 5552 5556 5558 5562 5566 5571 5576 5581 5584 5588 5592 5597 5600 5605 5610 5614 5618 5621 5623 5625 5626 5627 5625 5625 5625 5625 5623 5617 5613 5610 5602 5596 5585 5575 5562 5554 5548 5544 5542 5540 5539
5549 5553 5557 5558 5555 5559 5563 5566 5569 5574 5578 5582 5585 5589 5592 5596 5601 5606 5609 5613 5616 5618 5620 5622 5624 5623 5622 5623 5623 5621 5618 5616 5612 5606 5599 5590 5583 5572 5561 5551 5545 5540 5538 5538 5537
5563 5565 5566 5568 5568 5570 5571 5573 5576 5578 5581 5583 5587 5591 5594 5598 5601 5604 5608 5611 5614 5616 5618 5619 5619 5619 5620 5620 5620 5619 5616 5612 5609 5603 5596 5590 5582 5573 5564 5553 5546 5541 5538 5537 5537